[[{"header":{"parameterUnit":"m.s-1","parameterCategory":1,"la1":30.2992,"la2":30.254,"lo1":-89.0895,"lo2":-89.0443,"dy":0.0025,"dx":0.0025,"nx":19,"ny":19,"refTime":"2026-05-13T03:00:00:Z","depth":0,"parameterNumber":2,"parameterNumberName":"U-component_of_WINDS"},"data":[0,0,0,1.1577,1.1579,1.1704,1.1705,1.1861,1.1862,0,0,0,0,0,0,0,0,0,0,0,1.1533,1.1534,1.1576,1.1579,1.1704,1.1705,1.1861,1.1862,0,0,0,0,0,0,0,0,0,0,0,1.1533,1.1533,1.1534,1.158,1.1704,1.1705,1.1861,1.1768,0,0,0,0,0,0,0,0,0,0,1.1648,1.16,1.1533,1.1534,1.158,1.1704,1.1705,1.1764,1.1774,1.1802,0,1.1821,0,1.1844,1.1872,1.1873,0,0,0,1.1585,1.1591,1.1631,1.1535,1.1581,1.1704,1.1649,1.177,1.1781,1.1815,1.1823,1.1829,1.1846,1.1873,1.1874,1.2008,1.2008,0,0,1.1578,1.1552,1.1623,1.1638,1.1614,1.1645,1.1653,1.1777,1.1785,1.1823,1.1833,1.1849,1.1874,1.1875,1.2007,1.2008,0,0,0,1.1554,1.1547,1.1584,1.1631,1.1654,1.1649,1.1658,1.178,1.1794,1.1835,1.1851,1.1875,1.1877,1.2007,1.2008,1.2001,0,0,0,1.155,1.1534,1.1581,1.1566,1.1652,1.1718,1.1658,1.1785,1.18,1.185,1.1875,1.1878,1.2007,1.2007,1.2,1.2002,0,0,0,1.1527,1.1531,1.1547,1.1565,1.1617,1.1716,1.1737,1.1789,1.181,1.1873,1.1879,1.2006,1.2007,1.2,1.2001,1.2032,0,0,0,1.1495,1.1538,1.1546,1.1601,1.1616,1.171,1.1737,1.1808,1.1862,1.1876,1.2007,1.2008,1.1999,1.2001,1.2031,1.2053,1.2059,0,0,1.1535,1.1541,1.1576,1.1587,1.1673,1.1693,1.178,1.1853,1.1884,1.1966,1.197,1.2001,1.2001,1.2032,1.2103,1.2107,0,0,0,1.158,1.1605,1.1633,1.1682,1.1739,1.179,1.1853,1.1882,1.1953,1.1919,1.202,1.2021,1.204,1.2052,1.2056,1.2076,1.2012,1.2011,1.2011,1.1599,1.1636,1.1697,1.175,1.1798,1.1865,1.1909,1.196,1.1982,1.2006,1.203,1.2068,1.2081,1.2084,1.2104,1.2044,1.2044,1.2044,1.2044,1.1662,1.1703,1.1735,1.1805,1.1847,1.1908,1.1977,1.1991,1.2057,1.2052,1.2071,1.2062,1.2088,1.2108,1.2044,1.2044,1.2044,1.2044,1.2044,1.1678,1.1705,1.1739,1.1817,1.1874,1.1929,1.1991,1.2026,1.206,1.2078,1.211,1.2111,1.2117,1.2091,1.2091,1.2091,1.2092,1.2092,1.2092,1.1682,1.172,1.1767,1.1835,1.1874,1.193,1.2002,1.2042,1.2097,1.2118,1.2119,1.2141,1.2083,1.2069,1.2094,1.2094,1.2093,1.2093,1.2093,1.1732,1.1727,1.1799,1.1838,1.1924,1.1981,1.2026,1.2107,1.2147,1.2177,1.2198,1.2149,1.2159,1.2156,1.2144,1.2187,1.2187,1.2187,1.2187,1.1746,1.1755,1.1839,1.19,1.1965,1.2014,1.2101,1.216,1.222,1.2248,1.2248,1.2235,1.223,1.2243,1.2238,1.2228,1.2292,1.2292,1.2292,1.1781,1.1798,1.1861,1.1919,1.1991,1.2053,1.2136,1.2209,1.2277,1.2297,1.2272,1.2267,1.2248,1.2239,1.2256,1.2248,1.223,0,0]},{"header":{"parameterUnit":"m.s-1","parameterCategory":1,"la1":30.2992,"la2":30.254,"lo1":-89.0895,"lo2":-89.0443,"dy":0.0025,"dx":0.0025,"nx":19,"ny":19,"refTime":"2026-05-13T03:00:00:Z","depth":0,"parameterNumber":3,"parameterNumberName":"V-component_of_WINDS"},"data":[0,0,0,-2.1731,-2.1727,-2.1547,-2.1547,-2.1298,-2.1296,0,0,0,0,0,0,0,0,0,0,0,-2.1776,-2.1774,-2.1731,-2.1727,-2.1547,-2.1547,-2.1299,-2.1296,0,0,0,0,0,0,0,0,0,0,0,-2.1777,-2.1774,-2.1772,-2.1726,-2.1548,-2.1547,-2.1299,-2.144,0,0,0,0,0,0,0,0,0,0,-2.1618,-2.1652,-2.1775,-2.1772,-2.1725,-2.1548,-2.1547,-2.1447,-2.1432,-2.1373,0,-2.1321,0,-2.1305,-2.1278,-2.1277,0,0,0,-2.1731,-2.1665,-2.1625,-2.1772,-2.1723,-2.1548,-2.163,-2.1439,-2.1421,-2.1351,-2.1317,-2.1309,-2.1301,-2.1277,-2.1275,-2.0929,-2.0927,0,0,-2.1741,-2.1738,-2.1637,-2.1613,-2.1643,-2.1635,-2.1624,-2.1428,-2.1389,-2.1317,-2.1303,-2.1297,-2.1275,-2.1273,-2.0931,-2.0929,0,0,0,-2.1767,-2.1744,-2.171,-2.1623,-2.1592,-2.163,-2.1617,-2.1398,-2.1387,-2.13,-2.1294,-2.1273,-2.127,-2.0933,-2.093,-2.0837,0,0,0,-2.1773,-2.1759,-2.1714,-2.1709,-2.1595,-2.1493,-2.1591,-2.1401,-2.1379,-2.1295,-2.1273,-2.1268,-2.0935,-2.0931,-2.0844,-2.0792,0,0,0,-2.179,-2.1761,-2.1733,-2.171,-2.1633,-2.1497,-2.1475,-2.1396,-2.1374,-2.1277,-2.1267,-2.0936,-2.0932,-2.085,-2.0803,-2.0701,0,0,0,-2.1806,-2.1649,-2.1732,-2.1554,-2.1634,-2.1442,-2.1476,-2.1332,-2.1238,-2.1272,-2.0935,-2.093,-2.0852,-2.0809,-2.0708,-2.0615,-2.0577,0,0,-2.1606,-2.1625,-2.1521,-2.1589,-2.1383,-2.147,-2.1248,-2.1162,-2.1154,-2.1004,-2.0995,-2.0842,-2.0803,-2.0703,-2.0364,-2.0333,0,0,0,-2.1456,-2.1381,-2.1327,-2.124,-2.1175,-2.1114,-2.1065,-2.1034,-2.0908,-2.1078,-2.0779,-2.0756,-2.0697,-2.0652,-2.0626,-2.0576,-2.091,-2.0911,-2.0911,-2.1163,-2.1167,-2.0995,-2.0978,-2.0893,-2.0846,-2.0777,-2.0727,-2.075,-2.068,-2.0634,-2.0429,-2.0377,-2.0357,-2.0305,-2.0587,-2.0586,-2.0586,-2.0586,-2.0869,-2.0763,-2.0806,-2.0654,-2.0658,-2.0529,-2.0479,-2.0501,-2.038,-2.0462,-2.041,-2.0498,-2.0324,-2.0278,-2.0579,-2.058,-2.0581,-2.0581,-2.0582,-2.0676,-2.0626,-2.0596,-2.0474,-2.0379,-2.0366,-2.0251,-2.0257,-2.0262,-2.0211,-2.0164,-2.0166,-2.0168,-2.0189,-2.0188,-2.0188,-2.0187,-2.0186,-2.0186,-2.0487,-2.0457,-2.036,-2.0283,-2.023,-2.0162,-2.0117,-2.0064,-2.0006,-2.002,-2.002,-2.005,-2.0308,-2.0372,-2.0175,-2.0177,-2.0178,-2.0179,-2.018,-2.0184,-2.0256,-2.0107,-2.0055,-1.9967,-1.9873,-1.9886,-1.9778,-1.9736,-1.9678,-1.9722,-1.9912,-1.993,-1.995,-2.0003,-1.9723,-1.9723,-1.9723,-1.9723,-2.0021,-2.0034,-1.9886,-1.9803,-1.9722,-1.972,-1.9551,-1.9516,-1.9489,-1.9463,-1.9505,-1.9577,-1.9598,-1.9603,-1.9631,-1.968,-1.9324,-1.9324,-1.9323,-1.9835,-1.9841,-1.9696,-1.9678,-1.961,-1.9551,-1.9393,-1.9293,-1.9278,-1.9307,-1.9442,-1.9459,-1.9575,-1.9612,-1.9641,-1.9685,-1.9775,0,0]}]]